Погода в Кичменьге

Россия / Вологодская область     60°03′04″N   45°35′59″E
темп.,
°C
ветер,
м/с
пор.,
м/с
влажн.,
%
обл.,
%
осадки,
мм/ч
давл.,
гПа
погр.,
м
15 мая, сб
сб1500:00+13сз118399 0.0 101611
03:00+13ююв228197 0.0 101640
06:00+14ю2381100 0.0 1016122
09:00+16ю257857 0.1 1015357
12:00+22ю355498 0.0 10141432
15:00+21юз2573100 3.2 1013295
18:00+19вюв2387100 1.1 1012178
21:00+15в3595100 14.2 1010155
16 мая, вс
вс1600:00+15ююв41194100 0.0 1011310
03:00+13ю3109815 0.0 1010248
06:00+15ююз411920 0.0 1010509
09:00+19ююз510700 0.0 10101130
12:00+22ююз6115236 0.0 10102146
15:00+21юз611580 0.5 10101892
18:00+19юз5126980 0.9 10111217
21:00+15юз4128215 1.1 1011568
17 мая, пн
пн1700:00+14юз3118822 0.0 1012391
03:00+12ююз38966 0.0 1013243
06:00+14юз49878 0.0 1014407
09:00+19зюз586144 0.0 10151165
12:00+21зюз58475 0.0 10151849
15:00+23з57421 0.0 10152111
18:00+21з255647 0.0 1015257
21:00+15з227516 0.0 101613
18 мая, вт
вт1800:00+13св2283100 0.0 101713
03:00+12всв228745 0.0 101718
06:00+15в357619 0.0 1017190
09:00+21в345898 0.0 1017652
12:00+25юв344846 0.0 10161344
15:00+27ююв3440100 0.0 10152094
18:00+25вюв24546 0.0 1014135
21:00+18вюв397460 0.0 1014141
19 мая, ср
ср1900:00+16юв39755 0.0 1014155
03:00+14юв25791 0.0 101391
06:00+18юв3126687 0.0 1013384
09:00+24ююв594648 0.0 1012606
12:00+28ююв6103391 0.0 10111372
15:00+29юв59325 0.0 10093539
18:00+26юв511397 0.0 1008907
21:00+22юв616515 0.0 1006808